Location: St. Louis
(38.6270°N, 90.1994°W)
Time: 07:42:34
(UTC-06:00)

Transit 2A - Pass Details

Date: 03 December 2021
Orbit: 591 x 967 km, 66.7° (Epoch: 20 January)

Event Time Altitude Azimuth Distance (km) Brightness Sun altitude
Rises 08:38:33 0° 335° (NNW) 3,661 8.9 14.4°
Reaches altitude 10° 08:41:14 10° 341° (NNW) 2,710 8.3 14.7°
Maximum altitude 08:47:27 51° 56° (NE) 1,173 7.3 15.6°
Drops below altitude 10° 08:53:21 10° 132° (SE) 2,578 11.3 16.4°
Sets 08:55:51 0° 137° (SE) 3,469 11.2 16.7°
